Regional Weather Roundup
Issued by NWS

Home | Current Version | Previous Version | Graphics & Text | Print | Product List | Glossary On
Versions: 1 2 3 4 5 6 7 8 9 10 11 12 13 14 15 16 17 18 19 20 21 22 23 24 25 26 27 28 29 30 31 32 33 34 35 36 37 38 39 40 41 42 43 44 45 46 47 48 49 50
399
ASUS43 KFSD 011210
RWRSD

WEATHER ROUNDUP FOR SOUTH DAKOTA
NATIONAL WEATHER SERVICE SIOUX FALLS SD
700 AM CDT SUN MAY 01 2016

NOTE: "FAIR" INDICATES FEW OR NO CLOUDS BELOW 12,000 FEET WITH NO
SIGNIFICANT WEATHER AND/OR OBSTRUCTIONS TO VISIBILITY.


SDZ001>005-009-010-012>017-011300-
NORTHWEST AND NORTH CENTRAL SOUTH DAKOTA

CITY           SKY/WX    TMP DP  RH WIND       PRES   REMARKS
BUFFALO          N/A     30  24  78 W6        30.25R WCI  24
FAITH            N/A     31  24  75 NW8       30.29R WCI  23
MOBRIDGE       CLEAR     35  30  82 CALM      30.26R
$$

SDZ012>016-024>037-041>051-057-063-072>074-011300-
SOUTHWEST AND SOUTH CENTRAL SOUTH DAKOTA

CITY           SKY/WX    TMP DP  RH WIND       PRES   REMARKS
RAPID CTY ARPT CLOUDY    38  30  73 N13       30.29R
PIERRE         CLEAR     31  28  89 W7        30.24R WCI  24
CUSTER         CLOUDY    33  22  63 NW7       30.25S WCI  27
ELLSWORTH AFB  CLOUDY    39  30  68 NW13      30.29R
PHILIP         CLEAR     34  28  79 N8        30.26R WCI  27
PINE RIDGE     CLOUDY    33  29  85 NW8       30.25R WCI  26
WINNER         FAIR      36  32  85 N7        30.21R
$$

SDZ004>011-016>023-039-040-011300-
NORTHEAST SOUTH DAKOTA

CITY           SKY/WX    TMP DP  RH WIND       PRES   REMARKS
ABERDEEN       CLEAR     33  29  85 N6        30.26R WCI  28
WATERTOWN      CLOUDY    35  27  72 NE7       30.19R WCI  29
BROOKINGS      CLOUDY    34  29  82 NE9       30.16R WCI  27
SISSETON         N/A     36  29  75 NE9       30.24R
$$

SDZ017-020-022-023-036>040-048>070-011300-
SOUTHEAST SOUTH DAKOTA

CITY           SKY/WX    TMP DP  RH WIND       PRES   REMARKS
SIOUX FALLS    LGT RAIN  41  37  86 N12       30.13R
HURON          CLOUDY    34  30  85 N8        30.20R WCI  27
CHAMBERLAIN    CLEAR     38  35  87 N7        30.20R
MITCHELL       CLOUDY    38  34  85 N10       30.18R
YANKTON        CLOUDY    43  39  87 N14G20    30.11R
$$

ABBREVIATIONS USED IN REMARKS
   TC - TEMPERATURE IN CELSIUS
  WCI - WIND CHILL INDEX
   HX - HEAT INDEX
  VSB - VISIBILITY





USA.gov is the U.S. government's official web portal to all federal, state and local government web resources and services.